Flag for Brazil Weather past 2 weeks in São Paulo, São Paulo, Brazil

Now
84 °F

Sunny.


Feels Like: 86 °F
Forecast: 69 / 90 °F
Wind: 6 mph from North

Location: Sao Paulo Airport

Current Time: Dec 28, 2014 at 11:11:11 AM

Latest Report: Dec 28, 2014 at 10:00 AM


Visibility: 10 mi

Pressure: 30.07 "Hg

Humidity: 51%

Dew point: 64 °F

Location of São PauloLocation

Historic Weather in São Paulo — Graph

°F

São Paulo temperature yesterday

Maximum temperature yesterday: 93 °F (at 4:00 PM)
Minimum temperature yesterday: 72 °F (at 12:00 AM)
Average temperature yesterday: 80 °F

Past Weeks' High & Low Weather Summary

 TemperatureHumidityPressure
High93 °F (Dec 27, 4:00 PM)100% (Dec 22, 9:00 PM)30.24 "Hg (Dec 22, 9:00 PM)
Low34 °F (Dec 22, 9:00 PM)28% (Dec 27, 4:00 PM)29.83 "Hg (Dec 13, 5:00 PM)
Average72 °F72%30.03 "Hg
* Reported Dec 13 10:00 AM — Dec 28 10:00 AM, São Paulo, Weather by CustomWeather, © 2014

Note: Actual official high and low records may vary slightly from our data, if they occured in-between our weather recording intervals... More about our weather records

Advertising

São Paulo weather history for previous 24 hours

 ConditionsComfort  
Time TempWeatherWind HumidityBarometerVisibility
10:00 AM
Dec 28
84 °FSunny.6 mph51%30.07 "Hg10 mi
9:00 AM82 °FSunny.3 mph58%30.07 "Hg10 mi
8:00 AM79 °FSunny.3 mph65%30.07 "Hg10 mi
7:00 AM73 °FSunny.1 mph78%30.04 "Hg10 mi
6:00 AM73 °FClear.1 mph78%30.04 "Hg10 mi
5:00 AM73 °FClear.1 mph78%30.01 "Hg10 mi
4:00 AM75 °FClear.5 mph69%30.01 "Hg10 mi
3:00 AM77 °FClear.1 mph57%30.01 "Hg10 mi
2:00 AM79 °FClear.3 mph54%30.04 "Hg10 mi
1:00 AM79 °FClear.2 mph58%30.07 "Hg10 mi
12:00 AM81 °FClear.3 mph54%30.07 "Hg10 mi
11:00 PM
Dec 27
81 °FClear.3 mph51%30.07 "Hg10 mi
10:00 PM81 °FClear.3 mph58%30.07 "Hg10 mi
9:00 PM82 °FClear.9 mph55%30.07 "Hg10 mi
8:00 PM82 °FClear.8 mph55%30.04 "Hg10 mi
7:00 PM84 °FSunny.9 mph48%30.04 "Hg10 mi
6:00 PM88 °FSunny.13 mph43%30.04 "Hg10 mi
5:00 PM93 °FScattered clouds.6 mph28%30.04 "HgN/A
4:00 PM93 °FSunny.6 mph28%30.04 "Hg10 mi
3:00 PM91 °FSunny.8 mph32%30.07 "Hg10 mi
2:00 PM91 °FSunny.7 mph34%30.07 "Hg10 mi
1:00 PM90 °FSunny.7 mph36%30.09 "Hg10 mi
12:00 PM86 °FSunny.8 mph46%30.09 "Hg10 mi
11:00 AM82 °FSunny.6 mph51%30.12 "Hg10 mi
Weather by CustomWeather, © 2014

See weather overviewHow to use our weather pages